Location: Gadern
(49.5873°N, 8.8138°E)
Time: 16:04:42
(UTC+00:00)

Cosmos 1066 Rocket - Pass Details

Date: 19 May 2025
Orbit: 798 x 892 km, 81.2° (Epoch: 16 June)

Event Time Altitude Azimuth Distance (km) Brightness Sun altitude
Exits shadow 23:04:56 40° 172° (S) 1,242 4.5 -20.3°
Maximum altitude 23:07:01 73° 98° (E) 903 4.2 -20.4°
Drops below altitude 10° 23:12:45 10° 15° (NNE) 2,537 7.7 -20.4°
Sets 23:15:14 0° 14° (NNE) 3,490 8.8 -20.4°
